Home   Weather   Rio Branco   Past weeks

Flag for Brazil Past Weather in Rio Branco, Acre, Brazil — Yesterday and Last 2 Weeks

73 °F


Feels Like: 70 °F
Forecast: 73 / 93 °F
Wind: 2 mph from South

Location: Rio Branco Airport

Current Time: Oct 22, 2016 at 6:48:01 AM

Latest Report: Oct 22, 2016 at 6:00 AM

Visibility: 3 mi

Pressure: 29.92 "Hg

Humidity: 94%

Dew Point: 72 °F

Location of Rio BrancoLocation

Past Weather in Rio Branco — Graph


Rio Branco Temperature Yesterday

Maximum temperature yesterday: 91 °F (at 1:00 PM)
Minimum temperature yesterday: 72 °F (at 5:00 AM)
Average temperature yesterday: 77 °F

High & Low Weather Summary for the Past Weeks

High97 °F (Oct 19, 1:00 PM)100% (Oct 15, 2:00 PM)29.98 "Hg (Oct 15, 2:00 PM)
Low41 °F (Oct 15, 2:00 PM)34% (Oct 18, 1:00 PM)29.71 "Hg (Oct 7, 4:00 PM)
Average80 °F73%29.84 "Hg
* Reported Oct 7 5:00 AM — Oct 22 5:00 AM, Rio Branco, Weather by CustomWeather, © 2016

Note: Actual official high and low records may vary slightly from our data, if they occured in-between our weather recording intervals... More about our weather records


Rio Branco Weather History for the Previous 24 Hours

Scroll right to see more
Time TempWeatherWind HumidityBarometerVisibility
5:00 AM
Sat, Oct 22
73 °FPartly cloudy.2 mph89%29.92 "Hg5 mi
4:00 AM73 °FPartly cloudy.2 mph89%29.89 "Hg5 mi
3:00 AM73 °FPartly cloudy.2 mph89%29.86 "HgN/A
2:00 AM72 °FPartly cloudy.3 mph94%29.86 "HgN/A
1:00 AM72 °FPassing clouds.5 mph94%29.86 "Hg4 mi
12:00 AM72 °FPartly cloudy.2 mph94%29.86 "HgN/A
11:00 PM
Fri, Oct 21
73 °FPartly cloudy.2 mph89%29.86 "HgN/A
10:00 PM73 °FClear.2 mph89%29.89 "HgN/A
9:00 PM73 °FClear.2 mph89%29.89 "Hg10 mi
8:00 PM73 °FPassing clouds.5 mph89%29.86 "Hg4 mi
7:00 PM73 °FLight rain. Partly cloudy.3 mph89%29.86 "Hg2 mi
6:00 PM73 °FLight rain. Partly cloudy.2 mph89%29.83 "Hg2 mi
5:00 PM73 °FThunderstorms. Broken clouds.5 mph89%29.80 "Hg1 mi
4:00 PM73 °FThunderstorms. Broken clouds.7 mph89%29.83 "Hg1 mi
3:00 PM73 °FThunderstorms. Broken clouds.6 mph89%N/A1 mi
2:00 PM77 °FPartly sunny.17 mph74%N/AN/A
1:00 PM91 °FScattered clouds.6 mph52%29.77 "HgN/A
12:00 PM90 °FScattered clouds.5 mph52%29.83 "HgN/A
11:00 AM88 °FScattered clouds.5 mph55%29.86 "HgN/A
10:00 AM86 °FScattered clouds.5 mph59%29.89 "HgN/A
9:00 AM82 °FSunny.6 mph66%29.92 "Hg10 mi
8:00 AM81 °FSunny.6 mph70%29.89 "Hg10 mi
7:00 AM77 °FScattered clouds.2 mph79%29.89 "HgN/A
6:00 AM73 °FSunny.2 mph89%29.86 "Hg10 mi
Weather by CustomWeather, © 2016

See weather overviewHow to use our weather pages